Forside
METAR-TAF:

METAR-TAF

Lufthavne :

Aitkin Municipal Airport (Steve Kurtz Field)

Aitkin, Minnesota, USA

Breddekreds: 46-33N, længdekreds: 093-41W, højde: 367 m

Aktuelle vejr

Denne rapport blev lavet for 31 minutter siden, kl. 03:16 UTC
Vind stille
Temperatur -9°C
Fugtighed 52%
Tryk 1017 hPa
Sigt: 16.1 km
skyfri

METAR: KAIT 280316Z AUTO 00000KT 10SM CLR M09/M17 A3004 RMK AO2

Tid: 21:47 (03:47 UTC)


TAF: fraværende

Vejrobservationer og prognoser fra mere end 4000 lufthavne (METAR og TAF).

De gule og røde prikker repræsenterer de meteorologiske stationer.

Flyt musen over at se navnet på stationen.

Så klik over at se vejr observationer og prognoser.

At skifte det kort: Klik på de grønne knapper med et sort kors for at zoome ind; på den grønne knap med en bindestreg for at zoome ud; eller på de grønne pile for tilstødende kort.


METAR-TAF: